Change the Weather History Date:

Tuesday, January 8, 2013

  Actual Average Record
Temperature  
Mean Temperature 59 °F -  
Max Temperature 73 °F 64 °F 73 °F (2011)
Min Temperature 45 °F 40 °F 33 °F (2006)
Degree Days  
Heating Degree Days 6    
Growing Degree Days 9 (Base 50)    
Moisture  
Dew Point 43 °F    
Average Humidity 57    
Maximum Humidity 93    
Minimum Humidity 26    
Precipitation  
Precipitation 0.00 in - - ()
Sea Level Pressure  
Sea Level Pressure 30.14 in    
Wind  
Wind Speed 6 mph ()    
Max Wind Speed 20 mph    
Max Gust Speed -    
Visibility 7.2 miles    
Events      
Averages and records for this station are not official NWS values.
T = Trace of Precipitation, MM = Missing Value Source: Averaged Metar Reports

Daily Weather History Graph

Daily Weather History Graph

Search for Another Location

Airport or City:

Trip Planner

Search our weather history database for the weather conditions in past years. The results will help you decide how hot, cold, wet, or windy it might be!

Date:

Astronomy

Jan. 08, 2013 Rise Set
Actual Time 7:09 AM CST 6:11 PM CST
Civil Twilight 6:45 AM CST 6:35 PM CST
Nautical Twilight 6:18 AM CST 7:02 PM CST
Astronomical Twilight 5:51 AM CST 7:29 PM CST
Moon 3:46 AM CST (1/8) 3:14 PM CST (1/8)
Length of Visible Light 11h 50m
Length of Day
11h 02m
Waning Crescent, 13% of the Moon is Illuminated
Jan 8
Waning Crescent
Jan 11
New
Jan 18
First Quarter
Jan 26
Full
Feb 3
Last Quarter

Hourly Weather History & Observations

Time (CST) Temp. Windchill Dew Point Humidity Pressure Visibility Wind Dir Wind Speed Gust Speed Precip Events Conditions
5:56 AM 47 °F - 44 °F 86% 29.90 in 3 mi Calm Calm - -  
6:08 AM 39.2 °F 35.9 °F 37.4 °F 93% 30.26 in 8.0 mi North 4.6 mph - N/A   Clear
6:53 AM 39.2 °F 35.9 °F 37.4 °F 93% 30.27 in 7.0 mi North 4.6 mph - N/A   Mostly Cloudy
7:43 AM 41.0 °F 38.0 °F 39.2 °F 93% 30.28 in 7.0 mi NNW 4.6 mph - N/A   Mostly Cloudy
8:40 AM 53 °F - 46 °F 68% 30.00 in 3 mi Calm Calm - -   Partly Cloudy
8:45 AM 46.4 °F 42.9 °F 41.0 °F 81% 30.31 in 7.0 mi NNW 6.9 mph - N/A   Overcast
9:42 AM 51.8 °F - 42.8 °F 71% 30.32 in 7.0 mi Calm Calm - N/A   Overcast
10:46 AM 60.8 °F - 46.4 °F 59% 30.31 in 7.0 mi SE 5.8 mph - N/A   Overcast
11:45 AM 64 °F - 46 °F 41% 29.98 in 6 mi SSW 2.2 mph - -   Partly Cloudy
11:49 AM 64.4 °F - 44.6 °F 49% 30.27 in 8.0 mi SE 10.4 mph - N/A   Overcast
12:40 PM 66.2 °F - 44.6 °F 46% 30.23 in 8.0 mi South 17.3 mph - N/A   Mostly Cloudy
1:49 PM 68.0 °F - 42.8 °F 40% 30.20 in 8.0 mi South 18.4 mph - N/A   Mostly Cloudy
2:40 PM 70 °F - 43 °F 27% 29.81 in 12 mi SSE 4.5 mph - -   Scattered Clouds
2:45 PM 68.0 °F - 44.6 °F 43% 30.18 in 8.0 mi SSW 15.0 mph - N/A   Mostly Cloudy
3:45 PM 66.2 °F - 44.6 °F 46% 30.18 in 8.0 mi SSW 19.6 mph - N/A   Mostly Cloudy
4:42 PM 68.0 °F - 42.8 °F 40% 30.18 in 8.0 mi SSW 19.6 mph - N/A   Mostly Cloudy
5:40 PM 66 °F - 39 °F 26% 29.75 in 12 mi SSE 2.2 mph - -   Scattered Clouds
5:42 PM 66.2 °F - 42.8 °F 43% 30.18 in 8.0 mi SSW 9.2 mph - N/A   Mostly Cloudy
6:45 PM 60.8 °F - 42.8 °F 52% 30.21 in 8.0 mi South 13.8 mph - N/A   Mostly Cloudy
7:46 PM 59.0 °F - 44.6 °F 59% 30.23 in 8.0 mi South 15.0 mph - N/A   Mostly Cloudy
8:47 PM 59.0 °F - 44.6 °F 59% 30.25 in 8.0 mi South 17.3 mph - N/A   Mostly Cloudy
8:58 PM 60 °F - 44 °F 43% 29.76 in 3 mi Calm Calm - -   Mostly Cloudy
9:44 PM 59.0 °F - 44.6 °F 59% 30.26 in 8.0 mi SSE 12.7 mph - N/A   Mostly Cloudy
11:42 PM 57.2 °F - 46.4 °F 67% 30.26 in 8.0 mi South 19.6 mph - N/A   Mostly Cloudy
11:56 PM 60 °F - 46 °F 49% 29.80 in 3 mi Calm Calm - -   Mostly Cloudy